Wind_Speed
13 13 12 12 13 13 12 10 9 8 8 9 9 9 9 9 9 9 10 9 9 9 8 8 8 8 8 9 8 8 9 9 9 9 10 10 11 12 13 13 14 14 14 14
14 13 12 12 12 12 12 11 11 10 9 9 9 9 9 10 9 10 10 9 9 9 9 9 9 9 9 9 9 10 10 10 11 11 12 12 13 14 15 15 15 16 16 16
15 14 13 12 12 13 12 12 12 11 10 10 10 10 10 10 10 10 11 10 10 10 10 10 9 9 10 10 11 12 12 12 12 13 14 14 15 16 16 17 18 18 18 19
15 15 14 12 12 12 12 12 12 11 11 11 11 12 11 11 10 11 11 11 11 11 11 11 11 11 12 12 13 13 14 14 15 15 16 17 17 18 19 19 20 20 21 21
17 16 14 14 13 13 13 13 13 12 12 12 12 13 13 13 13 13 13 13 13 13 13 13 13 14 15 15 16 16 16 17 17 18 19 19 20 21 21 22 23 23 24 25
19 18 16 14 14 14 15 14 14 13 13 13 13 14 14 14 15 15 14 15 15 15 16 16 17 17 18 18 18 19 19 20 20 21 21 22 23 24 25 25 26 26 27 28
21 20 18 17 17 17 16 14 15 14 14 14 15 15 16 16 16 16 16 17 17 18 18 19 20 20 21 21 21 21 22 22 23 24 25 25 26 27 28 28 29 30 30 31
23 23 20 19 19 19 18 17 17 16 16 16 17 17 18 18 18 19 19 19 20 20 21 22 22 23 23 23 24 24 24 25 26 27 28 29 30 30 31 32 32 33 34 34
25 24 22 22 22 21 21 20 19 19 19 19 19 19 20 20 21 21 21 22 22 23 23 24 24 24 25 26 26 27 27 28 29 30 31 32 33 33 34 35 36 36 37 37
26 25 24 24 24 23 23 22 22 22 22 21 21 22 22 22 23 23 23 24 24 25 25 26 26 27 27 28 29 30 30 31 32 33 33 34 35 36 37 38 39 39 40 40
26 26 26 25 25 25 25 24 24 24 24 24 24 24 24 24 25 25 25 26 26 27 27 28 29 29 30 31 31 32 33 34 35 35 36 37 38 39 40 41 42 42 43 43
27 27 27 27 27 27 27 27 27 27 26 26 26 27 27 27 27 28 28 29 29 29 30 31 31 32 33 33 34 35 36 37 37 38 39 40 41 42 43 44 45 46 46 47
29 29 29 29 29 29 29 29 29 29 29 29 29 30 30 30 30 31 31 31 32 32 33 33 34 35 35 36 37 38 39 40 41 42 42 43 44 45 46 47 48 49 49 50
32 32 32 31 31 31 31 31 32 32 32 32 32 32 33 33 33 33 34 34 34 35 35 36 37 37 38 39 40 41 42 43 44 45 46 46 47 48 49 50 51 52 52 53
33 34 34 34 34 33 33 33 33 33 34 34 34 35 35 35 35 36 36 36 37 37 38 38 39 41 42 42 43 44 45 46 47 47 48 49 50 51 52 53 54 54 54 54
33 34 35 35 35 36 35 35 35 35 36 36 36 36 36 37 37 37 38 38 39 39 40 41 42 44 44 45 45 46 47 48 49 50 51 52 53 54 55 56 56 56 56 56
33 34 35 36 36 37 37 37 37 37 37 38 38 37 38 38 39 39 40 41 41 42 43 43 44 45 46 47 47 48 49 50 51 52 53 54 55 56 57 58 58 58 57 57
34 34 34 35 36 37 37 38 38 39 39 40 40 40 40 40 41 41 42 43 43 43 44 45 46 47 48 48 49 50 51 52 53 54 55 56 57 58 58 58 58 58 57 57
37 36 36 36 36 36 37 37 38 39 39 39 40 40 40 41 42 43 43 44 44 45 46 47 48 48 49 50 51 52 53 54 55 56 57 58 58 58 57 57 57 58 58 57
37 37 38 38 38 38 38 38 38 39 39 39 40 41 41 42 43 43 44 45 45 46 47 48 49 50 51 52 53 54 55 56 57 57 57 57 57 57 57 58 58 58 58 58
39 39 39 39 39 39 40 40 40 40 41 41 41 42 43 43 44 44 45 46 47 48 49 50 51 52 53 54 55 55 56 57 57 57 57 57 57 58 58 59 59 59 59 59
40 40 41 41 41 41 41 41 42 42 42 43 43 43 44 44 45 46 47 48 48 49 50 51 52 53 54 55 56 56 57 57 57 58 58 58 58 59 59 59 59 59 58 58
40 41 41 41 42 42 43 43 43 44 44 44 44 45 45 46 47 48 48 49 50 51 52 52 53 54 55 55 56 56 56 57 57 58 59 59 59 59 59 59 58 58 57 57
41 41 41 42 42 43 43 44 45 45 45 45 45 46 47 47 48 49 50 51 52 53 53 54 54 55 55 55 56 56 57 57 58 58 58 58 58 58 58 58 57 57 56 55
40 40 41 41 42 43 44 44 45 45 45 46 46 47 48 49 49 50 51 51 52 52 53 54 54 55 56 56 56 56 57 57 58 58 58 57 57 57 57 56 56 55 54 53
40 40 40 41 41 42 42 43 44 45 46 46 47 48 48 49 50 50 51 52 52 53 53 54 55 56 56 56 56 56 56 56 56 56 56 56 56 56 55 54 53 52 50 49
41 42 42 42 42 43 44 45 46 46 47 48 48 49 50 51 51 52 52 53 54 54 54 55 55 56 56 55 55 55 55 56 56 56 55 55 54 53 51 50 49 48 46 44
Wind_Direction
190 196 205 208 209 214 217 216 215 217 215 212 210 209 208 208 207 208 212 217 222 226 230 234 237 241 249 255 261 269 276 282 288 293 296 298 300 303 306 308 309 309 309 310
199 202 209 212 216 219 222 224 228 235 233 224 220 217 216 213 212 215 219 224 228 229 232 236 241 250 257 261 267 272 276 280 285 290 292 295 298 302 303 304 305 305 305 305
210 215 220 221 220 222 226 233 238 236 232 227 223 222 220 218 218 222 227 232 234 236 240 244 247 253 258 263 269 273 277 280 283 287 289 293 296 299 301 302 303 303 303 303
223 226 229 222 224 224 227 231 233 230 227 225 226 226 225 223 226 231 235 237 240 243 246 248 253 257 262 267 272 274 277 280 283 285 288 291 294 296 298 300 300 300 300 299
229 230 227 226 226 228 232 233 234 235 232 230 229 230 230 233 237 239 241 243 246 249 252 256 259 263 267 271 274 276 278 280 282 285 287 289 292 294 296 297 297 296 297 297
233 236 234 229 231 234 237 239 238 237 235 236 234 236 236 239 241 243 245 248 252 255 258 262 265 268 271 274 276 277 279 281 283 285 286 288 290 293 294 295 295 296 296 296
236 238 238 237 238 239 242 244 244 243 242 242 243 245 245 245 245 246 249 252 256 259 262 265 268 271 274 276 278 279 280 281 283 285 286 288 290 291 293 293 294 295 295 295
237 239 239 239 240 242 244 243 245 245 246 247 249 249 250 250 251 251 254 256 259 262 265 268 270 272 274 276 278 280 281 282 284 285 286 287 289 290 291 292 293 293 294 294
240 242 243 242 242 243 244 245 246 247 248 250 252 253 254 253 255 257 259 260 262 264 267 269 271 272 274 276 278 280 282 283 285 286 286 287 288 289 291 292 292 292 292 292
243 243 244 245 245 245 246 247 248 249 251 252 255 257 258 258 260 262 264 264 266 267 269 271 273 275 276 278 279 281 283 284 285 286 286 287 288 289 291 292 292 292 291 291
247 246 246 247 247 247 248 249 250 251 252 254 257 260 262 264 266 267 268 268 268 269 271 273 275 276 277 278 280 282 283 284 285 286 287 287 288 289 290 291 291 291 291 291
248 248 249 249 249 250 250 250 251 253 255 256 259 261 264 266 268 269 269 270 271 272 273 275 276 277 278 279 281 282 283 285 286 287 288 288 289 289 290 291 291 292 291 291
249 249 250 251 251 252 251 251 252 254 256 258 261 263 265 266 268 268 269 270 271 273 275 275 276 278 279 280 281 283 284 285 287 288 289 289 289 290 290 291 292 292 292 292
249 250 250 251 252 252 253 253 254 255 257 260 262 264 266 267 268 268 269 270 272 273 275 276 278 279 280 281 282 284 285 286 287 288 289 290 290 290 291 292 292 292 292 292
251 252 251 251 251 252 253 255 256 258 259 260 262 263 265 267 267 268 269 270 272 274 275 277 278 280 281 282 283 284 285 286 287 288 289 290 291 291 292 293 293 292 292 293
252 253 254 254 254 255 255 256 257 259 261 262 263 264 265 266 267 269 270 271 273 275 276 278 279 280 281 283 284 284 285 287 288 289 290 291 291 292 293 294 294 293 293 293
252 254 255 255 256 257 257 258 258 260 262 264 265 265 266 266 268 269 271 272 273 275 277 278 279 281 282 283 284 285 286 287 288 289 290 291 292 292 293 294 294 293 293 293
253 253 254 255 256 258 259 260 261 261 263 264 265 266 267 268 269 270 272 273 274 276 277 278 279 281 283 284 285 286 287 288 288 289 290 291 292 293 293 294 294 293 293 293
255 255 255 256 257 258 259 259 260 261 263 264 266 267 268 269 270 271 273 274 275 276 278 279 280 282 283 284 286 286 287 288 289 290 291 292 292 293 293 293 293 293 293 293
257 256 256 257 257 258 259 260 261 263 264 265 266 267 268 269 271 272 273 274 275 277 278 280 281 282 283 285 286 287 288 289 289 290 291 292 292 292 292 293 293 293 293 293
257 258 258 258 258 259 260 261 263 264 265 266 267 268 269 270 271 273 274 276 277 278 279 280 282 283 284 285 287 287 288 289 290 290 291 292 292 292 293 293 294 294 294 294
257 257 257 258 259 260 262 263 264 265 266 267 268 269 270 272 273 274 276 277 278 279 280 281 283 284 285 286 287 288 289 289 290 291 292 292 292 293 293 293 294 294 294 294
258 258 259 259 260 261 263 265 266 266 267 268 269 270 271 272 274 275 277 278 279 280 281 282 284 285 286 286 287 288 289 290 291 292 292 292 292 293 293 294 294 294 294 294
260 260 260 261 262 263 264 266 266 267 268 269 270 271 272 273 274 276 277 278 280 281 282 283 284 285 286 287 288 289 290 291 292 292 292 292 292 293 294 294 294 294 294 294
261 262 262 263 264 265 266 266 266 267 269 270 271 272 273 274 275 277 278 279 280 281 282 283 285 286 287 288 289 289 290 291 291 292 292 292 292 293 294 294 294 294 294 293
261 262 263 263 265 266 267 268 269 270 271 272 273 273 274 275 276 278 279 281 281 282 283 284 285 286 287 288 289 290 290 290 291 291 292 292 293 293 294 295 294 294 293 292
260 261 262 263 265 266 268 269 270 271 272 273 274 274 275 276 277 279 280 281 282 283 284 285 286 287 287 288 289 289 290 290 291 291 292 292 293 293 294 294 293 293 292 291
Height
5806 5808 5809 5810 5811 5813 5815 5816 5818 5820 5821 5822 5823 5825 5826 5827 5828 5829 5831 5833 5834 5835 5836 5837 5838 5839 5839 5839 5840 5840 5839 5839 5838 5838 5837 5836 5835 5834 5833 5831 5830 5828 5827 5825
5805 5806 5807 5809 5810 5811 5813 5814 5816 5818 5819 5820 5821 5822 5824 5825 5826 5828 5829 5830 5832 5833 5834 5835 5835 5836 5836 5836 5836 5836 5836 5836 5835 5834 5834 5832 5831 5830 5829 5828 5826 5824 5823 5821
5803 5804 5805 5807 5808 5809 5811 5812 5814 5815 5818 5818 5819 5820 5821 5823 5824 5825 5827 5828 5829 5830 5831 5831 5832 5833 5833 5833 5833 5833 5832 5832 5831 5831 5830 5829 5827 5826 5825 5823 5822 5820 5818 5817
5800 5802 5803 5807 5806 5807 5808 5810 5811 5813 5814 5815 5817 5818 5819 5821 5822 5823 5824 5825 5826 5827 5827 5828 5829 5829 5829 5829 5829 5829 5828 5828 5827 5826 5825 5824 5823 5822 5820 5818 5817 5815 5813 5812
5797 5798 5800 5802 5803 5804 5805 5807 5808 5810 5811 5812 5813 5814 5816 5817 5818 5820 5820 5821 5822 5823 5824 5824 5825 5825 5825 5825 5825 5824 5823 5823 5822 5821 5820 5819 5818 5816 5814 5813 5811 5809 5807 5805
5793 5795 5797 5800 5800 5801 5803 5804 5805 5806 5808 5809 5810 5811 5813 5814 5815 5816 5816 5817 5818 5819 5819 5820 5820 5820 5820 5820 5819 5819 5818 5817 5816 5815 5814 5813 5811 5810 5808 5806 5804 5802 5800 5798
5789 5790 5793 5796 5796 5798 5800 5802 5802 5803 5804 5805 5806 5808 5809 5809 5810 5811 5812 5813 5813 5814 5814 5814 5814 5814 5814 5814 5813 5812 5812 5811 5810 5808 5807 5806 5804 5802 5800 5798 5796 5794 5792 5790
5784 5785 5790 5791 5792 5794 5795 5796 5797 5798 5800 5801 5802 5803 5804 5805 5805 5806 5806 5807 5808 5808 5808 5808 5808 5808 5807 5807 5806 5805 5804 5803 5802 5801 5799 5797 5796 5794 5792 5790 5787 5785 5783 5780
5779 5782 5784 5785 5787 5788 5790 5791 5792 5793 5795 5796 5797 5797 5798 5799 5800 5800 5800 5801 5801 5801 5801 5801 5801 5801 5800 5799 5798 5797 5796 5795 5793 5792 5790 5788 5786 5784 5782 5780 5777 5775 5772 5770
5773 5775 5777 5779 5780 5782 5784 5785 5786 5787 5789 5790 5791 5792 5792 5793 5793 5793 5794 5794 5794 5794 5794 5793 5793 5793 5792 5791 5790 5789 5787 5786 5784 5782 5780 5778 5776 5774 5771 5769 5766 5763 5760 5758
5765 5768 5770 5772 5774 5776 5777 5779 5780 5781 5782 5783 5784 5785 5785 5786 5786 5786 5786 5786 5786 5786 5785 5785 5785 5784 5783 5782 5781 5780 5778 5776 5774 5772 5770 5768 5765 5762 5760 5757 5753 5751 5748 5745
5758 5760 5762 5765 5766 5768 5770 5771 5772 5774 5775 5776 5776 5777 5777 5778 5778 5778 5778 5777 5777 5777 5777 5776 5775 5774 5773 5772 5771 5770 5768 5766 5764 5762 5759 5757 5754 5751 5747 5744 5741 5737 5734 5731
5750 5752 5753 5755 5757 5759 5761 5763 5764 5765 5766 5767 5768 5768 5769 5769 5769 5769 5769 5768 5768 5768 5767 5766 5765 5764 5763 5762 5760 5759 5757 5754 5752 5750 5747 5744 5741 5738 5735 5732 5728 5724 5720 5716
5741 5743 5745 5747 5748 5750 5752 5753 5755 5756 5757 5758 5759 5759 5759 5759 5759 5759 5759 5758 5758 5757 5757 5756 5755 5753 5752 5751 5749 5747 5744 5742 5740 5737 5734 5731 5728 5724 5721 5718 5714 5710 5705 5701
5732 5734 5735 5737 5739 5740 5742 5744 5745 5746 5747 5748 5748 5748 5748 5748 5748 5748 5748 5747 5747 5746 5746 5745 5743 5742 5740 5738 5736 5734 5732 5729 5726 5723 5720 5716 5713 5709 5706 5702 5698 5694 5690 5685
5722 5723 5725 5727 5729 5730 5732 5733 5734 5735 5736 5737 5737 5738 5738 5737 5737 5737 5736 5736 5735 5735 5733 5732 5731 5729 5727 5725 5723 5721 5718 5715 5712 5709 5705 5702 5698 5694 5690 5685 5681 5677 5673 5668
5711 5713 5715 5716 5718 5719 5721 5722 5723 5724 5725 5725 5726 5726 5726 5726 5726 5725 5725 5724 5723 5722 5721 5720 5718 5716 5714 5712 5709 5707 5704 5701 5697 5694 5690 5686 5682 5677 5673 5668 5664 5659 5655 5650
5700 5702 5703 5705 5706 5708 5709 5710 5711 5712 5713 5713 5713 5714 5714 5714 5714 5713 5712 5711 5710 5709 5708 5706 5704 5702 5700 5697 5695 5692 5689 5685 5682 5678 5674 5670 5665 5660 5656 5651 5646 5642 5638 5633
5689 5691 5692 5694 5695 5696 5697 5698 5699 5699 5700 5700 5701 5701 5701 5701 5700 5700 5699 5698 5697 5695 5694 5691 5690 5688 5685 5682 5679 5676 5673 5670 5666 5662 5657 5653 5648 5644 5639 5634 5629 5624 5620 5615
5677 5679 5680 5682 5683 5684 5685 5685 5686 5687 5687 5687 5687 5687 5687 5687 5686 5686 5684 5684 5682 5681 5679 5677 5675 5673 5670 5667 5664 5660 5657 5653 5649 5645 5640 5636 5631 5627 5622 5617 5612 5607 5602 5597
5665 5667 5668 5669 5670 5671 5672 5673 5673 5674 5674 5674 5674 5674 5673 5673 5672 5671 5670 5669 5668 5666 5664 5661 5659 5657 5654 5651 5647 5644 5640 5636 5632 5628 5623 5619 5614 5610 5605 5600 5594 5589 5584 5579
5653 5654 5655 5656 5657 5658 5659 5660 5660 5660 5660 5660 5660 5660 5659 5659 5658 5657 5656 5655 5653 5650 5648 5646 5643 5640 5637 5634 5631 5627 5623 5619 5615 5611 5606 5602 5597 5592 5587 5582 5577 5572 5567 5562
5640 5641 5642 5643 5644 5645 5645 5646 5646 5646 5646 5646 5646 5646 5645 5644 5643 5642 5641 5639 5636 5634 5632 5629 5627 5624 5620 5617 5614 5610 5606 5602 5598 5593 5589 5584 5579 5575 5570 5565 5560 5555 5550 5545
5627 5628 5629 5630 5630 5631 5631 5632 5632 5632 5632 5632 5631 5630 5630 5629 5628 5626 5625 5623 5620 5618 5616 5613 5610 5607 5603 5600 5597 5593 5589 5585 5580 5576 5571 5566 5562 5557 5552 5548 5543 5538 5533 5528
5613 5614 5615 5616 5616 5617 5617 5617 5617 5617 5617 5616 5616 5615 5614 5613 5612 5610 5608 5606 5604 5602 5599 5596 5593 5590 5587 5583 5579 5576 5572 5567 5563 5559 5554 5549 5545 5540 5535 5530 5525 5521 5516 5511
5600 5601 5601 5602 5602 5603 5603 5603 5602 5602 5602 5601 5601 5600 5599 5597 5596 5594 5592 5590 5588 5585 5583 5580 5576 5573 5569 5566 5562 5558 5554 5550 5546 5541 5537 5532 5528 5523 5519 5514 5509 5504 5500 5496
5586 5587 5588 5588 5588 5588 5588 5588 5588 5587 5587 5586 5585 5584 5582 5581 5579 5578 5576 5573 5571 5568 5565 5562 5559 5556 5552 5548 5545 5541 5537 5533 5529 5524 5520 5515 5511 5507 5502 5498 5494 5489 5485 5482